Regional Weather Roundup
Issued by NWS

Home | Current Version | Previous Version | Graphics & Text | Print | Product List | Glossary On
Versions: 1 2 3 4 5 6 7 8 9 10 11 12 13 14 15 16 17 18 19 20 21 22 23 24 25 26 27 28 29 30 31 32 33 34 35 36 37 38 39 40 41 42 43 44 45 46 47 48 49 50
318
ASUS43 KIND 212059
RWRIN

WEATHER ROUNDUP FOR INDIANA
NATIONAL WEATHER SERVICE INDIANAPOLIS IN
500 PM EDT THU MAY 21 2015

NOTE: "FAIR" INDICATES FEW OR NO CLOUDS BELOW 12,000 FEET WITH NO
SIGNIFICANT WEATHER AND/OR OBSTRUCTIONS TO VISIBILITY.

* - STATION DOES NOT REPORT WEATHER SUCH AS PRECIPITATION OR FOG.

+ - STATION NOT QUALITY CONTROLLED BY THE NATIONAL WEATHER SERVICE.
    USE DATA WITH CAUTION...ESPECIALLY DEWPOINT AND RELATIVE
    HUMIDITY OBSERVATIONS.

INZ001>003-010>013-019-020-212200-
NORTHWEST INDIANA

CITY           SKY/WX    TMP DP  RH WIND       PRES   REMARKS
GARY /AIRPORT/ MOSUNNY   68  32  26 W12G23    30.06S

$$

LMZ046-743>745-212200-
SOUTHERN LAKE MICHIGAN

STATION/POSITION TIME  TEMP    WIND        PRES    WAVE
                       AIR SEA DIR/SP/G            HT
                 (UTC) (F)     (DEG/KT/KT) (MB)    (FT)
BURNS HARBOR     2000   61      60/  4/  4 1018.3F
MICHIGAN CITY    2000   55     230/  3/  4   N/A
5NW MICH CITY    2000   54 52  170/  2/  4   N/A     1

$$

INZ004-005-014>016-021>024-212200-
NORTH CENTRAL INDIANA

CITY           SKY/WX    TMP DP  RH WIND       PRES   REMARKS
ELKHART        SUNNY     63  32  31 W15G22    30.05S
GOSHEN         SUNNY     62  41  46 W16       30.04S
SOUTH BEND     SUNNY     64  32  30 NW17      30.06S

$$

INZ006>009-017-018-025>027-212200-
NORTHEAST INDIANA

CITY           SKY/WX    TMP DP  RH WIND       PRES   REMARKS
ANGOLA *+      SUNNY     63  54  72 W7        30.02F
FORT WAYNE     MOSUNNY   61  39  44 W14G23    30.07R

$$

INZ028-029-035-036-043>045-051>053-212200-
WEST CENTRAL INDIANA

CITY           SKY/WX    TMP DP  RH WIND       PRES   REMARKS
GREENCASTLE +  MOSUNNY   61  36  39 W3        30.12F
LAFAYETTE      SUNNY     61  37  41 W8        30.09S
TERRE HAUTE    CLOUDY    61  42  49 W12       30.13F

$$

INZ030>032-037>040-046>048-054>057-064-065-212200-
CENTRAL INDIANA

CITY           SKY/WX    TMP DP  RH WIND       PRES   REMARKS
COLUMBUS       PTSUNNY   55  39  54 NW12      30.13S
GREENWOOD *+   MOSUNNY   61  36  39 W9G20     30.12S
INDIANAPOLIS   PTSUNNY   60  35  39 NW12      30.10S
-EAGLE CREEK   PTSUNNY   62  38  40 NW10      30.09F
KOKOMO *+      MOSUNNY   63  39  42 NW15      30.08S
MT COMFORT *+  SUNNY     61  28  29 NW9G17    30.10F
SHELBYVILLE    PTSUNNY   60  41  49 NW7       30.10F

$$

INZ033-034-041-042-049-050-058-059-212200-
EAST CENTRAL INDIANA

CITY           SKY/WX    TMP DP  RH WIND       PRES   REMARKS
MUNCIE         MOSUNNY   59  41  51 NW10      30.08F

$$

INZ060-061-067>069-081>083-085>088-212200-
SOUTHWEST INDIANA

CITY           SKY/WX    TMP DP  RH WIND       PRES   REMARKS
EVANSVILLE     CLOUDY    59  45  59 NW12      30.18F
HUNTINGBURG *+ CLOUDY    55  45  67 NW13      30.17S

$$

INZ062-063-066-070>080-084-089>092-212200-
SOUTH CENTRAL AND SOUTHEAST INDIANA

CITY           SKY/WX    TMP DP  RH WIND       PRES   REMARKS
BLOOMINGTON    PTSUNNY   58  44  60 VRB3      30.14S
MADISON *+     CLOUDY    55  36  47 NW9       30.13S
SEYMOUR +      PTSUNNY   63  43  48 W9        30.13S

$$




USA.gov is the U.S. government's official web portal to all federal, state and local government web resources and services.